This demonstration page uses our WeatherBlox Daily Observations layout. Learn more.

Left ArrowRight Arrow

34.74481, -87.66753

Hourly Observations for August 10, 2022

Temp ( °F °C ) Dew Point ( °F °C ) Humidity (%) Winds ( mph kmh ) Pressure ( in mb ) Visibility ( mi km ) Precip ( " mm )
12:53 am 00:53 Clear 75 23.9 73 22.8 94 94 Calm 30.10 1019 10 16 0.00 0.00
1:53 am 01:53 Clear 74 23.3 72 22.2 94 94 Calm 30.09 1019 10 16 0.00 0.00
2:53 am 02:53 Clear 74 23.3 71 21.7 91 91 Calm 30.09 1019 10 16 0.00 0.00
3:53 am 03:53 Clear 73 22.8 71 21.7 94 94 Calm 30.09 1019 10 16 0.00 0.00
4:53 am 04:53 Clear 73 22.8 71 21.7 94 94 Calm 30.09 1019 10 16 0.00 0.00
5:53 am 05:53 Clear 73 22.8 71 21.7 94 94 Calm 30.10 1019 10 16 0.00 0.00
6:53 am 06:53 Cloudy 74 23.3 72 22.2 94 94 SSE 5 7 30.12 1020 10 16 0.00 0.00
7:44 am 07:44 Partly Cloudy with Nearby Thunderstorms 75 23.9 72 22.2 90 90 SSE 3 6 30.13 1020 10 16 0.00 0.00
7:53 am 07:53 Partly Cloudy with Nearby Thunderstorms 75 23.9 72 22.2 90 90 SSE 3 6 30.13 1020 10 16 0.00 0.00
8:46 am 08:46 Partly Cloudy 76 24.4 73 22.8 91 91 WSW 3 6 30.14 1021 10 16 0.00 0.00
8:53 am 08:53 Mostly Cloudy 76 24.4 73 22.8 91 91 SW 6 9 30.14 1021 10 16 0.00 0.00
9:38 am 09:38 Cloudy with Nearby Thunderstorms 76 24.4 73 22.8 91 91 S 3 6 30.14 1021 10 16 0.00 0.00
9:53 am 09:53 undefined 76 24.4 73 22.8 91 91 S 3 6 30.15 1021 10 16 0.00 0.00
10:18 am 10:18 Cloudy 76 24.4 73 22.8 91 91 S 7 11 30.15 1021 10 16 0.00 0.00
10:31 am 10:31 Cloudy with Nearby Thunderstorms 76 24.4 73 22.8 91 91 SSW 9 15 30.16 1021 5 8 0.01 0.25
10:38 am 10:38 Cloudy with Thunderstorms 76 24.4 73 22.8 91 91 SSW 9 15 30.16 1021 4 6 0.02 0.51
10:53 am 10:53 Cloudy with Thunderstorms 76 24.4 73 22.8 91 91 SW 6 9 30.16 1021 6 10 0.05 1.27
11:10 am 11:10 Cloudy with Nearby Thunderstorms 76 24.4 73 22.8 91 91 WNW 6 9 30.16 1021 3 4 0.04 1.02
11:42 am 11:42 Cloudy with Nearby Thunderstorms 75 23.9 73 22.8 94 94 NW 7 11 30.17 1022 3 5 0.14 3.56
11:53 am 11:53 Mostly Cloudy with Thunderstorms 74 23.3 72 22.2 94 94 WNW 3 6 30.16 1022 3 5 0.16 4.06
12:03 pm 12:03 Mostly Cloudy with Thunderstorms 75 23.9 73 22.8 94 94 Calm 30.16 1021 2 3 0.03 0.76
12:10 pm 12:10 Mostly Cloudy with Rain 75 23.9 73 22.8 94 94 Calm 30.16 1021 2 3 0.05 1.27
12:15 pm 12:15 Cloudy with Nearby Thunderstorms 75 23.9 73 22.8 94 94 Calm 30.16 1021 3 5 0.07 1.78
12:33 pm 12:33 Cloudy with Rain 75 23.9 73 22.8 94 94 Calm 30.15 1021 4 6 0.10 2.54
12:53 pm 12:53 Cloudy with Light Rain 75 23.9 73 22.8 94 94 Calm 30.15 1021 4 6 0.14 3.56
1:42 pm 13:42 Mostly Cloudy 78 25.6 74 23.3 87 87 VRB 3 6 30.12 1020 10 16 0.02 0.51
1:51 pm 13:51 Mostly Cloudy 79 26 75 24 89 89 SE 5 7 30.11 1020 10 16 0.02 0.51
1:53 pm 13:53 Mostly Cloudy 79 26.1 75 23.9 88 88 SE 5 7 30.11 1020 10 16 0.02 0.51
2:18 pm 14:18 Mostly Sunny 81 27.2 75 23.9 82 82 ESE 6 9 30.10 1019 10 16 0.00 0.00
2:45 pm 14:45 Mostly Cloudy 81 27.2 75 23.9 82 82 ESE 7 11 30.08 1019 10 16 0.00 0.00
2:53 pm 14:53 Mostly Cloudy 81 27.2 75 23.9 82 82 E 6 9 30.09 1019 10 16 0.00 0.00
3:13 pm 15:13 Partly Cloudy 82 27.8 74 23.3 77 77 VRB 5 7 30.07 1018 10 16 0.00 0.00
3:53 pm 15:53 Mostly Sunny 83 28.3 74 23.3 74 74 VRB 3 6 30.06 1018 10 16 0.00 0.00
4:53 pm 16:53 Sunny 85 29.4 74 23.3 70 70 ESE 6 9 30.05 1018 10 16 0.00 0.00
5:38 pm 17:38 Mostly Cloudy 83 28.3 75 23.9 77 77 E 6 9 30.03 1017 10 16 0.00 0.00
5:53 pm 17:53 Cloudy 83 28.3 75 23.9 77 77 ESE 5 7 30.04 1017 10 16 0.00 0.00
6:20 pm 18:20 Cloudy 79 26.1 71 21.7 77 77 SE 7 11 30.04 1017 10 16 0.00 0.00
6:53 pm 18:53 Mostly Cloudy 77 25 70 21.1 79 79 ESE 3 6 30.03 1017 10 16 0.00 0.00
7:53 pm 19:53 Clear 75 23.9 72 22.2 90 90 E 3 6 30.06 1018 10 16 0.00 0.00
8:53 pm 20:53 Mostly Clear 75 23.9 72 22.2 90 90 SE 3 6 30.08 1019 10 16 0.00 0.00
9:53 pm 21:53 Cloudy 75 23.9 72 22.2 90 90 E 3 6 30.08 1019 10 16 0.01 0.13
10:53 pm 22:53 Clear 74 23.3 71 21.7 91 91 Calm 30.08 1019 10 16 0.00 0.00
11:53 pm 23:53 Mostly Cloudy 73 22.8 71 21.7 94 94 Calm 30.08 1019 10 16 0.00 0.00

Powered by AerisWeather